Jamestown, ND

4:18 PM CDT on October 23, 2017 (GMT -0500)
Jamestown Municipal

Weather History for KJMS - July, 2013

Change the Weather History Date:

Tuesday, July 9, 2013

  Actual Average Record
Temperature  
Mean Temperature 65 °F 69 °F  
Max Temperature 75 °F 82 °F 109 °F (1936)
Min Temperature 55 °F 57 °F 40 °F (1910)
Degree Days  
Heating Degree Days 0 1  
Month to date heating degree days 0 9  
Since 1 June heating degree days 85 106  
Since 1 July heating degree days 0 9  
Cooling Degree Days 0 5  
Month to date cooling degree days 70 45  
Year to date cooling degree days 181 145  
Since 1 June cooling degree days 170 125  
Growing Degree Days 15 (Base 50)    
Moisture  
Dew Point 62 °F    
Average Humidity 81    
Maximum Humidity 100    
Minimum Humidity 61    
Precipitation  
Precipitation 0.16 in 0.12 in 0.98 in (1926)
Month to date precipitation 0.17 1.10  
Year to date precipitation 7.52 9.84  
Sea Level Pressure  
Sea Level Pressure 29.93 in    
Wind  
Wind Speed 11 mph (NNW)    
Max Wind Speed 22 mph    
Max Gust Speed 28 mph    
Visibility 10 miles    
Events Rain    
T = Trace of Precipitation, MM = Missing Value Source: NWS Daily Summary

Daily Weather History Graph

Daily Weather History Graph

Search for Another Location

Airport or City:

Trip Planner

Search our weather history database for the weather conditions in past years. The results will help you decide how hot, cold, wet, or windy it might be!

Date:

Astronomy

Jul. 09, 2013 Rise Set
Actual Time 5:49 AM CDT 9:29 PM CDT
Civil Twilight 5:11 AM CDT 10:08 PM CDT
Nautical Twilight 4:19 AM CDT 10:59 PM CDT
Astronomical Twilight 3:07 AM CDT 12:11 AM CDT
Moon 7:24 AM CDT (7/9) 9:56 PM CDT (7/9)
Length of Visible Light 16h 56m
Length of Day
15h 39m
New Moon, 2% of the Moon is Illuminated
Jul 9
New Moon
Jul 15
First Quarter
Jul 22
Full
Jul 29
Last Quarter
Aug 6
New

Hourly Weather History & Observations

Time (CDT) Temp. Dew Point Humidity Pressure Visibility Wind Dir Wind Speed Gust Speed Precip Events Conditions
12:56 AM 71.1 °F 63.0 °F 75% 29.84 in 10.0 mi SSE 3.5 mph - N/A   Partly Cloudy
1:46 AM 71.6 °F 62.6 °F 73% 29.91 in 10.0 mi NW 18.4 mph 25.3 mph N/A   Mostly Cloudy
1:56 AM 69.1 °F 64.9 °F 87% 29.89 in 6.0 mi NW 15.0 mph - 0.03 in Rain Rain
2:56 AM 68.0 °F 66.0 °F 93% 29.86 in 10.0 mi Calm Calm - 0.10 in   Mostly Cloudy
3:56 AM 66.9 °F 66.0 °F 97% 29.78 in 10.0 mi SE 8.1 mph - 0.03 in Rain Light Rain
4:56 AM 66.0 °F 66.0 °F 100% 29.79 in 10.0 mi NNW 5.8 mph - 0.00 in   Clear
5:49 AM 66.2 °F 66.2 °F 100% 29.85 in 10.0 mi WNW 11.5 mph - N/A   Scattered Clouds
5:56 AM 66.9 °F 66.0 °F 97% 29.82 in 10.0 mi WNW 12.7 mph - N/A   Partly Cloudy
6:56 AM 64.9 °F 63.0 °F 93% 29.85 in 10.0 mi NNW 5.8 mph - N/A   Clear
7:56 AM 66.9 °F 63.0 °F 87% 29.86 in 10.0 mi NW 11.5 mph - N/A   Clear
8:56 AM 70.0 °F 64.0 °F 81% 29.87 in 10.0 mi NW 10.4 mph - N/A   Clear
9:19 AM 71.6 °F 64.4 °F 78% 29.89 in 10.0 mi WNW 13.8 mph - N/A   Mostly Cloudy
9:31 AM 71.6 °F 64.4 °F 78% 29.90 in 10.0 mi WNW 15.0 mph - N/A   Scattered Clouds
9:52 AM 71.6 °F 62.6 °F 73% 29.90 in 10.0 mi WNW 17.3 mph - N/A   Mostly Cloudy
9:56 AM 72.0 °F 64.0 °F 76% 29.88 in 10.0 mi NW 17.3 mph 23.0 mph N/A   Mostly Cloudy
10:56 AM 71.1 °F 63.0 °F 75% 29.90 in 10.0 mi NW 17.3 mph - N/A   Overcast
11:56 AM 73.9 °F 62.1 °F 66% 29.91 in 10.0 mi NW 19.6 mph 26.5 mph N/A   Overcast
12:56 PM 73.0 °F 63.0 °F 71% 29.93 in 10.0 mi NNW 15.0 mph 21.9 mph N/A   Overcast
1:56 PM 72.0 °F 62.1 °F 71% 29.94 in 10.0 mi NNW 17.3 mph - N/A   Overcast
2:03 PM 73.4 °F 62.6 °F 69% 29.96 in 10.0 mi North 15.0 mph - N/A   Overcast
2:19 PM 71.6 °F 62.6 °F 73% 29.96 in 10.0 mi North 13.8 mph 21.9 mph N/A   Overcast
2:56 PM 70.0 °F 62.1 °F 76% 29.97 in 10.0 mi North 15.0 mph 23.0 mph N/A   Overcast
3:56 PM 71.1 °F 61.0 °F 70% 29.98 in 10.0 mi North 13.8 mph - N/A   Mostly Cloudy
4:10 PM 71.6 °F 60.8 °F 69% 29.98 in 10.0 mi NNE 10.4 mph - N/A   Scattered Clouds
4:56 PM 71.1 °F 59.0 °F 66% 29.99 in 10.0 mi NNE 12.7 mph - N/A   Mostly Cloudy
5:56 PM 71.1 °F 57.9 °F 63% 30.00 in 10.0 mi North 11.5 mph - N/A   Mostly Cloudy
6:56 PM 69.1 °F 57.0 °F 65% 30.01 in 10.0 mi NNW 11.5 mph - N/A   Mostly Cloudy
7:56 PM 68.0 °F 57.0 °F 68% 30.03 in 10.0 mi NNW 10.4 mph - N/A   Overcast
8:56 PM 64.9 °F 57.0 °F 75% 30.04 in 10.0 mi North 6.9 mph - N/A   Partly Cloudy
9:56 PM 61.0 °F 57.0 °F 87% 30.06 in 10.0 mi NNW 5.8 mph - N/A   Clear
10:56 PM 57.9 °F 55.9 °F 93% 30.08 in 10.0 mi NW 5.8 mph - N/A   Clear
11:56 PM 57.9 °F 55.9 °F 93% 30.08 in 10.0 mi NNW 8.1 mph - N/A   Clear